#timestamp,LO_Frequency,Hit,StdDev 
1558015215.6,286047001.0,N
1558015235.4,286047000.6,N
1558015255.3,286047000.7,N
1558015275.1,286047000.7,N
1558015295.8,286046998.6,N
1558015315.7,286047000.7,N
1558015335.5,286046998.8,N
1558015355.4,286047001.2,N
1558015375.2,286046999.3,N
1558015395.0,286046999.5,N
1558015395.9,286046999.5,N
1558015415.8,286046999.6,N
1558015435.6,286046998.4,N
1558015455.5,286046999.4,N
1558015475.3,286046998.8,N
1558015495.1,286046999.4,N
1558015515.9,286046996.6,N
1558015535.7,286046998.2,N
1558015555.5,286046998.1,N
1558015575.4,286047000.5,N
1558015595.2,286047001.1,N
1558015615.1,286046998.6,N
1558015616.0,286046998.6,N
1558015635.8,286046998.4,N
1558015655.6,286047000.5,N
1558015675.5,286047000.3,N
1558015695.3,286047000.1,N
1558015715.2,286047000.4,N
1558015735.9,286047000.6,N
1558015755.7,286046998.1,N
1558015775.6,286047000.8,N
1558015795.4,286047000.1,N
1558015815.2,286047000.7,N
1558015835.1,286047000.0,N
1558015836.0,286047000.0,N
1558015855.8,286047000.1,N
1558015875.7,286047002.0,N
1558015895.5,286047000.1,N
1558015915.3,286047002.8,N
1558015935.2,286047000.0,N
1558015955.0,286047000.2,N
1558015955.9,286047000.2,N
1558015975.8,286047002.7,N
1558015995.6,286047004.4,Y
1558016015.4,286047001.4,P
1558016035.3,286047002.3,P
1558016055.1,286046999.8,N
1558016075.8,286046999.7,N
1558016095.7,286046999.9,N
1558016115.5,286047000.1,N
1558016135.4,286046998.1,N
1558016155.2,286046998.7,N
1558016175.0,286046996.5,N
1558016175.9,286046996.5,N
1558016195.8,286046999.1,N
1558016215.6,286046999.2,N
1558016235.4,286046999.0,N
1558016255.3,286046998.4,N
1558016275.1,286047000.7,N
1558016295.9,286047000.5,N
1558016315.7,286047001.2,N
1558016335.5,286047000.5,N
1558016355.4,286047000.3,N
1558016375.2,286047000.7,N
1558016395.0,286047000.2,N
1558016395.9,286047000.2,N
1558016415.8,286047002.8,N
1558016435.6,286047000.2,N
1558016455.5,286047000.9,N
1558016475.3,286047000.4,N
1558016495.1,286046999.7,N
1558016515.9,286047002.4,N
1558016535.7,286047001.3,N
1558016555.5,286047001.5,N
1558016575.4,286047002.3,N
1558016595.2,286047002.8,N
1558016615.1,286047001.8,N
1558016616.0,286047001.8,N
1558016635.8,286047003.3,N
1558016655.6,286047003.6,N
1558016675.5,286047003.6,N
1558016695.3,286047003.9,N
1558016715.2,286047004.2,N
1558016735.9,286047001.3,N
1558016755.7,286047003.2,N
1558016775.6,286047004.3,N
1558016795.4,286047002.2,N
1558016815.2,286046999.7,N
1558016835.1,286047003.8,N
1558016836.0,286047003.8,N
1558016855.8,286047003.4,N
1558016875.7,286047003.9,N
1558016895.5,286047004.0,N
1558016915.3,286047002.9,N
1558016935.2,286047005.0,Y
1558016955.0,286047004.6,P
1558016955.9,286047004.6,P
1558016975.7,286047006.7,P
1558016995.6,286047010.4,Y
1558017015.4,286047006.5,P
1558017035.3,286047012.4,P
1558017055.1,286047012.6,P
1558017075.8,286047012.7,Y
1558017095.7,286047004.9,P
1558017115.5,286047006.9,P
1558017135.4,286047008.7,P
1558017155.2,286047008.3,Y
1558017175.0,286047000.2,P
1558017175.9,286047000.2,N
1558017195.8,286047002.5,N
1558017215.6,286047002.2,N
1558017235.5,286046999.9,N
1558017255.3,286047000.8,N
1558017275.1,286046998.1,N
1558017295.9,286047000.6,N
1558017315.7,286047000.4,N
1558017335.5,286047001.5,N
1558017355.4,286047004.2,N
1558017375.2,286047001.5,N
1558017395.1,286047002.5,N
1558017396.0,286047002.5,N
1558017415.8,286047000.0,N
1558017435.6,286046998.8,N
1558017455.5,286046996.7,N
1558017475.3,286046997.1,N
1558017495.1,286046999.1,N
1558017515.9,286046999.2,N
1558017535.7,286046998.9,N
1558017555.6,286046998.1,N
1558017575.4,286046996.7,N
1558017595.2,286046997.9,N
1558017615.1,286046993.8,N
1558017616.0,286046993.8,N
1558017635.8,286046992.9,N
1558017655.6,286046989.4,Y
1558017675.5,286046988.3,P
1558017695.3,286046984.5,N
1558017715.2,286046982.8,N
1558017735.9,286046979.9,Y
1558017755.7,286046989.5,P
1558017775.6,286046987.1,P
1558017795.4,286046987.7,P
1558017815.3,286046985.4,Y
1558017835.1,286046999.1,P
1558017836.0,286046999.1,N
1558017855.8,286046996.9,N
1558017875.7,286046997.7,N
1558017895.5,286046997.7,N
1558017915.3,286046995.0,N
1558017935.2,286046994.9,N
1558017955.0,286046995.4,N
1558017955.9,286046995.4,N
1558017975.8,286046996.0,N
1558017995.6,286046993.8,N
1558018015.4,286046994.2,N
1558018035.3,286046996.1,N
1558018055.1,286046995.9,N
1558018075.8,286046995.9,N
1558018095.7,286046996.1,N
1558018115.5,286046996.0,N
1558018135.4,286046995.9,N
1558018155.2,286046996.2,N
1558018175.0,286046995.8,N
1558018175.9,286046995.8,N
1558018195.8,286046995.7,N
1558018215.6,286046995.0,N
1558018235.5,286046995.0,N
1558018255.3,286046994.9,N
1558018275.1,286046994.9,N
1558018295.9,286046997.8,N
1558018315.7,286046997.4,N
1558018335.5,286046997.4,N
1558018355.4,286046997.4,N
1558018375.2,286046997.2,N
1558018395.1,286046997.9,N
1558018396.0,286046997.9,N
1558018415.8,286046995.5,Y
1558018435.6,286046998.1,P
1558018455.5,286046998.5,N
1558018475.3,286047002.8,N
1558018495.1,286047001.6,N
1558018515.9,286047003.6,N
1558018535.7,286047003.7,N
1558018555.6,286047004.4,N
1558018575.4,286047004.2,N
1558018595.2,286047004.4,N
1558018615.1,286047003.6,N
1558018616.0,286047003.6,N
1558018635.8,286047002.0,N
1558018655.7,286047001.5,N
1558018675.5,286047001.6,N
1558018695.3,286047002.5,N
1558018715.2,286047002.1,N
1558018735.0,286047001.4,N
1558018735.9,286047001.4,N
1558018755.7,286047003.2,N
1558018775.6,286047003.6,N
1558018795.4,286047004.2,N
